Simultaneous Nadir Overpasses (SNOs) Predictions

Prediction of SNOs between METOP-A and NOAA-19 Satellite Orbit:

Table of predicted SNOs for the next 14.0 days since TLE Epoch: 4/27/2013
Index Date (METOP-A) Time (METOP-A) Lat,Lon (METOP-A) SZA (METOP-A ) Date (NOAA-19) Time (NOAA-19) Lat,Lon (NOAA-19) SZA (NOAA-19 ) Distance(km) Time Diff (sec)
1 04/29/2013 10:28:23 -73.83,-163.17 120.76 04/29/2013 10:27:13 -73.87,-165.04 120.65 58.16 70
2 04/29/2013 11:19:11 73.45, 3.26 58.88 04/29/2013 11:18:12 73.45, 3.18 58.89 2.73 59
3 04/29/2013 12:09:53 -73.42, 170.52 121.17 04/29/2013 12:09:08 -73.40, 170.57 121.18 2.78 45
4 04/29/2013 13:00:34 73.38, -22.24 58.79 04/29/2013 13:00:15 73.37, -22.15 58.79 2.66 19
5 04/29/2013 13:51:16 -73.35, 145.03 121.25 04/29/2013 13:51:12 -73.37, 145.12 121.24 3.58 4
6 04/29/2013 14:41:56 73.36, -47.62 58.75 04/29/2013 14:42:19 73.34, -47.60 58.73 1.91 23
7 04/29/2013 15:32:38 -73.33, 119.64 121.29 04/29/2013 15:33:16 -73.34, 119.67 121.29 1.19 38
8 04/29/2013 16:23:19 73.29, -73.12 58.66 04/29/2013 16:24:23 73.31, -73.05 58.67 3.30 64
9 04/29/2013 17:14:04 -73.11, 93.82 121.51 04/29/2013 17:15:16 -73.11, 94.67 121.56 27.59 72
10 05/09/2013 11:12:13 73.48, 5.10 56.03 05/09/2013 11:10:59 73.47, 5.01 56.03 3.56 74
11 05/09/2013 12:02:55 -73.46, 172.37 124.01 05/09/2013 12:01:55 -73.46, 172.29 123.99 2.78 60
12 05/09/2013 12:53:36 73.41, -20.40 55.95 05/09/2013 12:53:03 73.44, -20.44 55.98 2.80 33
13 05/09/2013 13:44:18 -73.39, 146.88 124.09 05/09/2013 13:43:58 -73.38, 146.95 124.10 2.59 20
14 05/09/2013 14:34:58 73.39, -45.78 55.91 05/09/2013 14:35:07 73.41, -45.89 55.92 3.61 9
15 05/09/2013 15:25:40 -73.37, 121.49 124.13 05/09/2013 15:26:02 -73.35, 121.50 124.15 2.07 22
16 05/09/2013 16:16:21 73.32, -71.28 55.83 05/09/2013 16:17:10 73.33, -71.22 55.82 1.86 49
17 05/09/2013 17:07:03 -73.30, 95.99 124.21 05/09/2013 17:08:06 -73.32, 96.05 124.20 3.04 63
18 05/09/2013 17:57:56 72.65, -98.07 55.19 05/09/2013 17:59:02 72.70, -95.36 55.13 90.04 66




NCC Satellite Simultaneous Nadir Overpasses (SNOs) Prediction Service
